Regional Weather Roundup
Issued by NWS Upton, NY

Current Version | Previous Version | Text Only | Print | Product List | Glossary Off
Versions: 1 2 3 4 5 6 7 8 9 10 11 12 13 14 15 16 17 18 19 20 21 22 23 24 25 26 27 28

000
ASUS41 KOKX 241404
RWROKX

REGIONAL WEATHER ROUNDUP
NATIONAL WEATHER SERVICE NEW YORK NY
1000 AM EDT TUE MAY 24 2016

NOTE: "FAIR" INDICATES FEW OR NO CLOUDS BELOW 12,000 FEET WITH NO
SIGNIFICANT WEATHER AND/OR OBSTRUCTIONS TO VISIBILITY.

NYZ071-072-176-178-NJZ106-104-241500-
NEW YORK CITY METRO AREA


CITY           SKY/WX    TMP DP  RH WIND       PRES   REMARKS
CENTRAL PARK   CLOUDY    61  58  90 CALM      29.95R FOG
LAGUARDIA APRT LGT RAIN  62  62 100 NE6       29.92R
KENNEDY INTL   CLOUDY    62  58  86 N6        29.93R
NEWARK/LIBERTY LGT RAIN  62  58  86 W6        29.92S
BRNX BOT. GARD   N/A     61  57  88 W7        29.93F
TETERBORO      LGT RAIN  62  55  77 NW7       29.91S
$$

NYZ177-179-078>081-241500-
LONG ISLAND NEW YORK

CITY           SKY/WX    TMP DP  RH WIND       PRES   REMARKS
FARMINGDALE    CLOUDY    61  58  90 N8        29.91S FOG
ISLIP          CLOUDY    59  56  89 NW7       29.89S
SHIRLEY        CLOUDY    60  57  89 NW7       29.90R
RIVERHEAD        N/A     59  57  94 CALM      29.88S
WESTHAMPTON    LGT RAIN  55  55 100 N6        29.90S FOG
EAST HAMPTON   CLOUDY    56  55  95 CALM      29.87S FOG
MONTAUK POINT    N/A     55  55 100 N3        29.88S
$$

NYZ052-065-067-241500-
HUDSON VALLEY

CITY           SKY/WX    TMP DP  RH WIND       PRES   REMARKS
WHITE PLAINS   CLOUDY    60  56  86 CALM      29.90F
NEWBURGH       LGT RAIN  57  57 100 NE6       29.94R FOG
MONTGOMERY     CLOUDY    63  59  87 NE8       29.93R
POUGHKEEPSIE   CLOUDY    61  56  83 CALM      29.92S
ALBANY         LGT RAIN  61  55  81 CALM      29.95R
$$

NJZ001-105-106-008-010-013-015-019>022-104-241500-
NEW JERSEY

CITY           SKY/WX    TMP DP  RH WIND       PRES   REMARKS
NEWARK/LIBERTY LGT RAIN  62  58  86 W6        29.92S
TETERBORO      LGT RAIN  62  55  77 NW7       29.91S
CALDWELL       LGT RAIN  61  57  87 CALM      29.93S
MORRISTOWN     LGT RAIN  61  59  94 W3        29.93F
SOMERVILLE     CLOUDY    63  58  83 CALM      29.92F
SUSSEX         PTSUNNY   62  56  80 SW5       29.93F
ANDOVER          N/A     61  57  87 CALM      29.94F
TRENTON        CLOUDY    66  57  72 NE5       29.94S
MILLVILLE      CLOUDY    65  58  78 NW6       29.95S
ATLANTIC CITY  SUNNY     69  58  67 W6        29.94R
WRIGHTSTOWN    NOT AVBL
TOMS RIVER     CLOUDY    63  55  77 N5        29.95S
BELMAR         LGT RAIN  61  59  93 W6        29.95S
$$

PAZ047>061-062-071-241500-
EASTERN PENNSYLVANIA

CITY           SKY/WX    TMP DP  RH WIND       PRES   REMARKS
PHILADELPHIA   PTSUNNY   68  56  65 VRB5      29.95R
ALLENTOWN      MOSUNNY   68  53  58 VRB3      29.95S
SCRANTON       SUNNY     68  46  45 NW6       29.96S
$$

CTZ002-004>006-009-010-012-RIZ004-006-007-MAZ004-011-015-241500-
SOUTHERN NEW ENGLAND
 IN CT

CITY           SKY/WX    TMP DP  RH WIND       PRES   REMARKS
BRADLEY INTL   LGT RAIN  61  57  87 N13       29.89F
HARTFORD       CLOUDY    63  57  81 N12       29.89S
DANBURY        LGT RAIN  63  57  81 NW5       29.91F
WTRBRY/OXFORD  CLOUDY    57  54  88 N12       29.91S
BRIDGEPORT     CLOUDY    63  57  81 N5        29.89S
MERIDEN          N/A     63  56  78 N10       29.88F
NEW HAVEN      LGT RAIN  61  57  87 N8        29.88S
CHESTER        CLOUDY    61  57  88 NE8G15    29.87F
GROTON         CLOUDY    59  57  93 NE12      29.86S
WILLIMANTIC    CLOUDY    61  53  75 N12G21    29.88F

 IN RI

CITY           SKY/WX    TMP DP  RH WIND       PRES   REMARKS
PROVIDENCE     DRIZZLE   56  53  90 N14       29.88F FOG
BLOCK ISLAND   LGT RAIN  54  54 100 N12G20    29.86S FOG
WESTERLY       CLOUDY    59  53  80 N7        29.87R HAZE

 IN MA

CITY           SKY/WX    TMP DP  RH WIND       PRES   REMARKS
BOSTON         CLOUDY    53  52  96 NE13      29.93F FOG
WORCESTER      NOT AVBL
WESTFIELD      LGT RAIN  58  55  90 N10       29.91S
PROVINCETOWN   LGT RAIN  53  52  96 E15       29.89F VSB 3/4
NANTUCKET      LGT RAIN  55  53  93 S13       29.87S VSB 1
$$

ANZ330-335-338-340-345-350-353-355-241500-
COASTAL MARINE OBSERVATIONS


STATION/POSITION TIME  SKY/WX   TEMP    WIND        PRES    VSBY  WAVE
                                AIR SEA DIR/SP/G                  HT/PER
                 (UTC)          (F)     (DEG/KT/KT) (MB)    (MI)  (FT/S)
NY HARB ENTRANCE 1250            58 57  310/  6/  8 1012.5          3/ 9
20S FIRE ISLAND  1250            56 54  310/ 10/ 12 1011.9          4/ 8
GREAT SOUTH BAY  1300            59 63  320/  8/ 10   N/A
23 SSW MONTAUK P 1350            53 53  340/  6/  8 1011.1          5/ 9
15 E BARNEGAT LI 1322               54                N/A           4/ 8
HUDSON CANYON    1250            54 52              1011.9          4/ 7
KINGS POINT      1300            58 58              1012.7
EXECUTION ROCKS  NOT AVBL
CENTRAL LI SOUND NOT AVBL
EASTERN LI SOUND 1300            56 52   20/  8/ 10   N/A
ROBBINS REEF     1318            62     310/  9/ 11 1012.6
$$


>>>>>>>>>>>>>>>>>>>>>>>>>>>> KEY <<<<<<<<<<<<<<<<<<<<<<<<<<<
>                                                          <
>     SKY/WX - SKY CONDITION/PRESENT WEATHER               <
>     TMP    - TEMPERATURE IN FAHRENHEIT                   <
>     DP     - DEWPOINT IN FAHRENHEIT                      <
>     RH     - RELATIVE HUMIDITY IN PERCENT                <
>     WIND   - DIRECTION AND SPEED IN MPH                  <
>     PRES   - MEAN SEA LEVEL PRESSURE IN INCHES OF HG     <
>     WCI    - WIND CHILL INDEX                            <
>     VSB    - VISIBILITY IN MILES                         <
>     HX     - HEAT INDEX                                  <
>     TC     - TEMPERATURE IN CELSIUS                      <
>     VRB    - VARIABLE WIND DIRECTION                     <
>                                                          <
>>>>>>>>>>>>>>>>>>>>>>>>>>>> KEY <<<<<<<<<<<<<<<<<<<<<<<<<<<






USA.gov is the U.S. government's official web portal to all federal, state and local government web resources and services.